Change the Weather History Date:

Wednesday, December 11, 2013

  Actual Average Record
Temperature  
Mean Temperature 18 °F -  
Max Temperature 23 °F 36 °F 63 °F (1949)
Min Temperature 12 °F 23 °F 3 °F (1978)
Degree Days  
Heating Degree Days 48    
Moisture  
Dew Point 15 °F    
Average Humidity 80    
Maximum Humidity 93    
Minimum Humidity 61    
Precipitation  
Precipitation 0.02 in - - ()
Sea Level Pressure  
Sea Level Pressure 30.33 in    
Wind  
Wind Speed 13 mph (WNW)    
Max Wind Speed 18 mph    
Max Gust Speed 26 mph    
Visibility 3 miles    
Events Fog , Snow    
Averages and records for this station are not official NWS values.
T = Trace of Precipitation, MM = Missing Value Source: NWS Daily Summary

Daily Weather History Graph

Daily Weather History Graph

Search for Another Location

Airport or City:

Trip Planner

Search our weather history database for the weather conditions in past years. The results will help you decide how hot, cold, wet, or windy it might be!

Date:

Astronomy

Dec. 11, 2013 Rise Set
Actual Time 8:04 AM EST 5:13 PM EST
Civil Twilight 7:32 AM EST 5:45 PM EST
Nautical Twilight 6:57 AM EST 6:20 PM EST
Astronomical Twilight 6:23 AM EST 6:54 PM EST
Moon 1:51 PM EST (12/11) 2:20 AM EST (12/11)
Length of Visible Light 10h 13m
Length of Day
9h 09m
Waxing Gibbous, 71% of the Moon is Illuminated
Dec 11
Waxing Gibbous
Dec 17
Full
Dec 25
Last Quarter
Jan 1
New
Jan 7
First Quarter

Hourly Weather History & Observations

Time (EST) Temp. Windchill Dew Point Humidity Pressure Visibility Wind Dir Wind Speed Gust Speed Precip Events Conditions
12:39 AM 19.4 °F 4.5 °F 12.2 °F 74% 30.25 in 10.0 mi West 17.3 mph - N/A   Overcast
12:48 AM 19.4 °F 4.1 °F 12.2 °F 74% 30.25 in 7.0 mi West 18.4 mph 25.3 mph N/A   Overcast
12:53 AM 19.9 °F 6.2 °F 12.9 °F 74% 30.29 in 7.0 mi West 15.0 mph - N/A   Overcast
1:07 AM 19.4 °F 4.5 °F 12.2 °F 74% 30.25 in 7.0 mi West 17.3 mph - N/A   Overcast
1:53 AM 19.9 °F 4.8 °F 14.0 °F 78% 30.28 in 10.0 mi West 18.4 mph 23.0 mph N/A   Overcast
2:53 AM 21.0 °F 6.6 °F 15.1 °F 78% 30.29 in 10.0 mi West 17.3 mph - N/A   Overcast
3:28 AM 21.2 °F 7.8 °F 15.8 °F 80% 30.26 in 2.0 mi West 15.0 mph - 0.00 in Snow Light Snow
3:44 AM 21.2 °F 7.3 °F 15.8 °F 80% 30.27 in 3.0 mi West 16.1 mph 23.0 mph 0.00 in Snow Light Snow
3:49 AM 21.2 °F 6.8 °F 15.8 °F 80% 30.26 in 1.8 mi West 17.3 mph 23.0 mph 0.00 in Snow Light Snow
3:53 AM 21.0 °F 7.6 °F 16.0 °F 81% 30.30 in 1.5 mi West 15.0 mph - 0.00 in Snow Light Snow
4:26 AM 21.2 °F 9.5 °F 15.8 °F 80% 30.25 in 2.0 mi West 11.5 mph - 0.00 in Snow Light Snow
4:42 AM 21.2 °F 9.5 °F 17.6 °F 86% 30.25 in 1.8 mi West 11.5 mph - 0.00 in Snow Light Snow
4:53 AM 21.0 °F 11.4 °F 17.1 °F 85% 30.28 in 1.5 mi WNW 8.1 mph - 0.00 in Snow Light Snow
5:13 AM 21.2 °F 9.5 °F 17.6 °F 86% 30.25 in 1.0 mi West 11.5 mph - 0.00 in Snow Light Snow
5:20 AM 21.2 °F 11.7 °F 17.6 °F 86% 30.24 in 0.8 mi West 8.1 mph - 0.00 in Snow Light Snow
5:29 AM 21.2 °F 10.1 °F 17.6 °F 86% 30.24 in 1.0 mi West 10.4 mph - 0.00 in Snow Light Snow
5:40 AM 19.4 °F 8.6 °F 17.6 °F 93% 30.24 in 1.5 mi West 9.2 mph - 0.00 in Snow Light Snow
5:53 AM 21.0 °F 9.9 °F 17.1 °F 85% 30.27 in 2.0 mi West 10.4 mph - 0.00 in Snow Light Snow
5:58 AM 21.2 °F 12.6 °F 17.6 °F 86% 30.24 in 1.2 mi West 6.9 mph - 0.00 in Snow Light Snow
6:35 AM 21.2 °F 10.9 °F 17.6 °F 86% 30.25 in 0.8 mi West 9.2 mph - 0.00 in Snow Light Snow
6:50 AM 21.2 °F 12.6 °F 19.4 °F 93% 30.26 in 0.5 mi West 6.9 mph - 0.00 in Fog , Snow Snow
6:53 AM 21.0 °F 11.4 °F 19.0 °F 92% 30.29 in 0.5 mi West 8.1 mph - 0.00 in Fog , Snow Snow
7:02 AM 21.2 °F 10.9 °F 19.4 °F 93% 30.26 in 0.8 mi West 9.2 mph - 0.00 in Snow Light Snow
7:09 AM 21.2 °F 8.9 °F 19.4 °F 93% 30.26 in 0.5 mi West 12.7 mph - 0.00 in Fog , Snow Snow
7:28 AM 21.2 °F 8.9 °F 19.4 °F 93% 30.27 in 0.8 mi West 12.7 mph - 0.01 in Snow Light Snow
7:41 AM 21.2 °F 10.9 °F 17.6 °F 86% 30.27 in 1.0 mi West 9.2 mph - 0.01 in Snow Light Snow
7:53 AM 21.0 °F 8.6 °F 19.0 °F 92% 30.31 in 0.8 mi West 12.7 mph - 0.01 in Snow Light Snow
8:02 AM 21.2 °F 10.1 °F 19.4 °F 93% 30.28 in 0.5 mi West 10.4 mph - 0.00 in Fog , Snow Snow
8:28 AM 21.2 °F 9.5 °F 19.4 °F 93% 30.29 in 0.8 mi WNW 11.5 mph 19.6 mph 0.00 in Snow Light Snow
8:37 AM 21.2 °F 9.5 °F 17.6 °F 86% 30.28 in 1.0 mi WNW 11.5 mph - 0.00 in Snow Light Snow
8:53 AM 21.9 °F 10.4 °F 18.0 °F 85% 30.32 in 1.0 mi WNW 11.5 mph 18.4 mph 0.00 in Snow Light Snow
9:00 AM 21.2 °F 9.5 °F 19.4 °F 93% 30.29 in 0.5 mi WNW 11.5 mph 16.1 mph 0.00 in Fog , Snow Light Snow
9:10 AM 21.2 °F 10.1 °F 17.6 °F 86% 30.30 in 0.8 mi WNW 10.4 mph - 0.01 in Snow Light Snow
9:28 AM 21.2 °F 10.1 °F 17.6 °F 86% 30.31 in 0.5 mi WNW 10.4 mph - 0.01 in Fog , Snow Light Snow
9:47 AM 21.2 °F 10.1 °F 19.4 °F 93% 30.31 in 0.2 mi WNW 10.4 mph 19.6 mph 0.01 in Fog , Snow Snow
9:53 AM 21.0 °F 11.4 °F 19.0 °F 92% 30.34 in 0.2 mi NW 8.1 mph 19.6 mph 0.01 in Fog , Snow Snow
10:05 AM 21.2 °F 10.9 °F 19.4 °F 93% 30.31 in 0.8 mi NW 9.2 mph - 0.00 in Snow Light Snow
10:09 AM 21.2 °F 8.9 °F 17.6 °F 86% 30.32 in 1.0 mi WNW 12.7 mph 18.4 mph 0.00 in Snow Light Snow
10:12 AM 21.2 °F 8.3 °F 17.6 °F 86% 30.32 in 1.8 mi WNW 13.8 mph 18.4 mph 0.00 in Snow Light Snow
10:14 AM 21.2 °F 10.1 °F 17.6 °F 86% 30.32 in 2.5 mi WNW 10.4 mph 18.4 mph 0.00 in Snow Light Snow
10:35 AM 21.2 °F 10.1 °F 17.6 °F 86% 30.32 in 1.2 mi NW 10.4 mph - 0.00 in Snow Light Snow
10:50 AM 21.2 °F 9.5 °F 17.6 °F 86% 30.33 in 0.8 mi WNW 11.5 mph 19.6 mph 0.00 in Snow Light Snow
10:53 AM 21.9 °F 11.7 °F 18.0 °F 85% 30.35 in 1.0 mi NW 9.2 mph 19.6 mph 0.00 in Snow Light Snow
11:03 AM 21.2 °F 11.7 °F 15.8 °F 80% 30.33 in 2.0 mi WNW 8.1 mph 16.1 mph 0.00 in Snow Light Snow
11:11 AM 23.0 °F 12.4 °F 15.8 °F 74% 30.33 in 7.0 mi WNW 10.4 mph 19.6 mph 0.00 in   Overcast
11:21 AM 21.2 °F 8.3 °F 17.6 °F 86% 30.33 in 1.5 mi WNW 13.8 mph 20.7 mph 0.00 in Snow Light Snow
11:23 AM 21.2 °F 9.5 °F 17.6 °F 86% 30.33 in 0.8 mi WNW 11.5 mph 20.7 mph 0.00 in Snow Light Snow
11:31 AM 21.2 °F 8.9 °F 17.6 °F 86% 30.33 in 0.5 mi WNW 12.7 mph 17.3 mph 0.00 in Fog , Snow Snow
11:35 AM 21.2 °F 10.9 °F 15.8 °F 80% 30.32 in 1.0 mi WNW 9.2 mph - 0.00 in Snow Light Snow
11:39 AM 21.2 °F 8.3 °F 15.8 °F 80% 30.32 in 2.0 mi WNW 13.8 mph 19.6 mph 0.00 in Snow Light Snow
11:43 AM 21.2 °F 11.7 °F 17.6 °F 86% 30.33 in 0.8 mi NW 8.1 mph 19.6 mph 0.00 in Snow Light Snow
11:45 AM 21.2 °F 10.9 °F 17.6 °F 86% 30.33 in 0.5 mi NNW 9.2 mph 19.6 mph 0.00 in Fog , Snow Snow
11:53 AM 21.0 °F 10.6 °F 18.0 °F 88% 30.36 in 0.2 mi NW 9.2 mph - 0.00 in Fog , Snow Snow
12:07 PM 21.2 °F 10.9 °F 17.6 °F 86% 30.32 in 0.2 mi NW 9.2 mph 19.6 mph 0.00 in Fog , Snow Snow
12:15 PM 21.2 °F 10.9 °F 15.8 °F 80% 30.32 in 0.8 mi NW 9.2 mph 17.3 mph 0.00 in Snow Light Snow
12:21 PM 21.2 °F 10.1 °F 15.8 °F 80% 30.31 in 1.5 mi NW 10.4 mph 19.6 mph 0.00 in Snow Light Snow
12:31 PM 21.2 °F 10.9 °F 15.8 °F 80% 30.32 in 2.5 mi NNW 9.2 mph 17.3 mph 0.00 in Snow Light Snow
12:38 PM 21.2 °F 12.6 °F 15.8 °F 80% 30.31 in 4.0 mi Variable 6.9 mph - 0.00 in Snow Light Snow
12:44 PM 21.2 °F 10.9 °F 15.8 °F 80% 30.32 in 1.8 mi NW 9.2 mph 19.6 mph 0.00 in Snow Light Snow
12:53 PM 21.0 °F 8.1 °F 16.0 °F 81% 30.35 in 1.0 mi NW 13.8 mph 23.0 mph 0.00 in Snow Light Snow
12:57 PM 21.2 °F 9.5 °F 17.6 °F 86% 30.32 in 0.5 mi NW 11.5 mph 21.9 mph 0.00 in Fog , Snow Snow
1:17 PM 19.4 °F 7.2 °F 15.8 °F 86% 30.32 in 0.8 mi NW 11.5 mph 19.6 mph 0.00 in Snow Light Snow
1:25 PM 19.4 °F 9.5 °F 15.8 °F 86% 30.32 in 0.5 mi NW 8.1 mph 19.6 mph 0.00 in Snow Snow
1:34 PM 19.4 °F 7.9 °F 14.0 °F 80% 30.33 in 0.8 mi NNW 10.4 mph 24.2 mph 0.00 in Snow Light Snow
1:53 PM 19.9 °F 6.7 °F 12.9 °F 74% 30.37 in 2.0 mi NW 13.8 mph 21.9 mph 0.00 in Snow Light Snow
2:08 PM 19.4 °F 7.9 °F 10.4 °F 68% 30.34 in 4.0 mi NW 10.4 mph 26.5 mph 0.00 in   Haze
2:28 PM 19.4 °F 7.2 °F 10.4 °F 68% 30.34 in 3.0 mi NW 11.5 mph 23.0 mph 0.00 in Snow Light Snow
2:39 PM 19.4 °F 5.5 °F 10.4 °F 68% 30.34 in 2.5 mi WNW 15.0 mph 24.2 mph 0.00 in Snow Light Snow
2:49 PM 19.4 °F 7.2 °F 8.6 °F 63% 30.35 in 6.0 mi NW 11.5 mph 19.6 mph 0.00 in   Haze
2:53 PM 18.0 °F 5.4 °F 8.1 °F 65% 30.40 in 8.0 mi NW 11.5 mph 19.6 mph 0.00 in   Overcast
3:53 PM 17.1 °F 3.6 °F 7.0 °F 65% 30.41 in 10.0 mi WNW 12.7 mph 20.7 mph N/A   Mostly Cloudy
4:53 PM 16.0 °F 1.7 °F 6.1 °F 65% 30.43 in 10.0 mi WNW 13.8 mph 20.7 mph N/A   Overcast
5:53 PM 16.0 °F 2.3 °F 5.0 °F 62% 30.46 in 10.0 mi WNW 12.7 mph 21.9 mph N/A   Mostly Cloudy
6:20 PM 15.8 °F 2.1 °F 6.8 °F 68% 30.44 in 10.0 mi WNW 12.7 mph 21.9 mph N/A   Overcast
6:49 PM 15.8 °F 4.2 °F 5.0 °F 62% 30.45 in 10.0 mi WNW 9.2 mph 19.6 mph N/A   Mostly Cloudy
6:53 PM 15.1 °F 1.8 °F 5.0 °F 64% 30.48 in 10.0 mi WNW 11.5 mph 17.3 mph N/A   Overcast
7:05 PM 15.8 °F 4.2 °F 5.0 °F 62% 30.45 in 10.0 mi WNW 9.2 mph 16.1 mph N/A   Overcast
7:28 PM 15.8 °F 2.7 °F 6.8 °F 68% 30.46 in 9.0 mi WNW 11.5 mph 17.3 mph N/A   Overcast
7:53 PM 15.1 °F 1.8 °F 5.0 °F 64% 30.49 in 10.0 mi WNW 11.5 mph 18.4 mph N/A   Overcast
8:53 PM 15.1 °F 1.1 °F 3.9 °F 61% 30.51 in 10.0 mi West 12.7 mph 19.6 mph N/A   Overcast
9:44 PM 14.0 °F -0.8 °F 6.8 °F 73% 30.47 in 9.0 mi West 13.8 mph 21.9 mph N/A   Overcast
9:53 PM 14.0 °F 1.2 °F 6.1 °F 71% 30.51 in 9.0 mi WNW 10.4 mph 24.2 mph N/A   Overcast
10:53 PM 12.9 °F -0.2 °F 3.9 °F 67% 30.51 in 10.0 mi WNW 10.4 mph - N/A   Overcast
11:53 PM 12.9 °F 1.6 °F 5.0 °F 71% 30.50 in 10.0 mi NW 8.1 mph - N/A   Overcast